ECHOSTAR 19 (41893 NORAD) Tracking and Keplerian Element Data

This shows tracking and keplerian element data for the satellite.

Feedback or suggestion? Click here.




ElementValue
Catalog41893
NameECHOSTAR 19
Epoch Orbit3290
Epoch Day354.21331875
Epoch Year2025
RAAN17.8964
Inclination0.0268
Eccentricity0.0001175
Argument of Perigee256.5444
Mean Anonmoly154.3069
Mean Motion1.00270052
Decay Rate0
L11 41893U 16079A 25354.21331875 .00000000 00000+0 00000+0 0 9995
L22 41893 0.0268 17.8964 0001175 256.5444 154.3069 1.00270052 32901



Live tracking and technical data element details for ECHOSTAR 19 (NORAD 41893). ECHOSTAR 19 can be tracked NOW for your location showing map with azimuth and elevation plus other details from your city location.







IsCatalogInMostPopularTable: catalog: 41893, numindb: 1158
Update: records affected: 1



GetName: 41893 ECHOSTAR 19

Hit Count: updated at: Thu, 16 Apr 2026 04:23:27 GMT